Time,TemperatureF,DewpointF,PressureIn,WindDirection,WindDirectionDegrees,WindSpeedMPH,WindSpeedGustMPH,Humidity,HourlyPrecipIn,Conditions,Clouds,dailyrainin,SolarRadiationWatts/m^2,SoftwareType,DateUTC
2013-09-15 00:04:00,49.2,48.1,29.89,SW,229,8.1,8.1,96,0.00,CLR,,0.00,0.0,WeatherDisplay:10.37,2013-09-14 23:04:00,
2013-09-15 00:09:00,49.1,48.0,29.89,NW,308,8.1,8.1,96,0.00,CLR,,0.00,0.0,WeatherDisplay:10.37,2013-09-14 23:09:00,
2013-09-15 00:14:00,48.9,47.8,29.89,NNW,330,6.9,6.9,96,0.00,CLR,,0.00,0.0,WeatherDisplay:10.37,2013-09-14 23:14:00,
2013-09-15 00:19:00,48.8,47.7,29.89,NNW,344,6.9,6.9,96,0.00,CLR,,0.00,0.0,WeatherDisplay:10.37,2013-09-14 23:19:00,
2013-09-15 00:24:00,48.8,47.7,29.89,NNW,328,5.8,5.8,96,0.00,CLR,,0.00,0.0,WeatherDisplay:10.37,2013-09-14 23:24:00,
2013-09-15 00:29:00,48.6,47.5,29.88,NNW,344,3.5,3.5,96,0.00,CLR,,0.00,0.0,WeatherDisplay:10.37,2013-09-14 23:29:00,
2013-09-15 00:34:00,48.6,47.2,29.88,North,0,4.6,4.6,95,0.00,CLR,,0.00,0.0,WeatherDisplay:10.37,2013-09-14 23:34:00,
2013-09-15 00:39:00,48.5,47.1,29.88,SW,230,6.9,6.9,95,0.00,CLR,,0.00,0.0,WeatherDisplay:10.37,2013-09-14 23:39:00,
2013-09-15 00:44:00,48.3,46.9,29.88,NNW,346,5.0,5.0,95,0.00,CLR,,0.00,0.0,WeatherDisplay:10.37,2013-09-14 23:44:00,
2013-09-15 00:49:00,48.3,46.9,29.87,WNW,291,14.0,14.0,95,0.00,CLR,,0.00,0.0,WeatherDisplay:10.37,2013-09-14 23:49:00,
2013-09-15 00:54:00,48.6,47.2,29.85,North,0,12.7,12.7,95,0.00,CLR,,0.00,0.0,WeatherDisplay:10.37,2013-09-14 23:54:00,
2013-09-15 00:59:00,49.1,47.7,29.85,NW,326,18.4,18.4,95,0.00,CLR,,0.00,0.0,WeatherDisplay:10.37,2013-09-14 23:59:00,
2013-09-15 01:04:00,49.5,48.1,29.84,NNW,347,13.8,13.8,95,0.00,CLR,,0.00,0.0,WeatherDisplay:10.37,2013-09-15 00:04:00,
2013-09-15 01:09:00,49.6,47.9,29.83,NNW,344,17.3,17.3,94,0.00,CLR,,0.00,0.0,WeatherDisplay:10.37,2013-09-15 00:09:00,
2013-09-15 01:14:00,49.6,47.7,29.83,North,350,19.0,19.0,93,0.00,CLR,,0.00,0.0,WeatherDisplay:10.37,2013-09-15 00:14:00,
2013-09-15 01:19:00,49.6,47.7,29.83,North,350,18.4,18.4,93,0.00,CLR,,0.00,0.0,WeatherDisplay:10.37,2013-09-15 00:19:00,
2013-09-15 01:24:00,49.8,47.9,29.83,NNW,342,18.4,18.4,93,0.00,CLR,,0.00,0.0,WeatherDisplay:10.37,2013-09-15 00:24:00,
2013-09-15 01:29:00,49.9,48.0,29.82,North,356,16.1,16.1,93,0.00,CLR,,0.00,0.0,WeatherDisplay:10.37,2013-09-15 00:29:00,
2013-09-15 01:34:00,50.1,48.2,29.82,North,357,12.0,12.0,93,0.00,CLR,,0.00,0.0,WeatherDisplay:10.37,2013-09-15 00:34:00,
2013-09-15 01:39:00,50.4,48.5,29.82,North,357,16.1,16.1,93,0.00,CLR,,0.00,0.0,WeatherDisplay:10.37,2013-09-15 00:39:00,
2013-09-15 01:44:00,50.5,48.6,29.82,North,353,19.6,19.6,93,0.00,CLR,,0.00,0.0,WeatherDisplay:10.37,2013-09-15 00:44:00,
2013-09-15 01:49:00,50.5,48.6,29.81,NNW,344,12.0,12.0,93,0.00,CLR,,0.00,0.0,WeatherDisplay:10.37,2013-09-15 00:49:00,
2013-09-15 01:54:00,50.7,48.7,29.80,SW,224,11.5,11.5,93,0.00,CLR,,0.00,0.0,WeatherDisplay:10.37,2013-09-15 00:54:00,
2013-09-15 01:59:00,50.8,48.8,29.80,NNW,344,17.3,17.3,93,0.00,CLR,,0.00,0.0,WeatherDisplay:10.37,2013-09-15 00:59:00,
2013-09-15 02:04:00,51.0,49.0,29.79,NNW,344,11.5,11.5,93,0.00,CLR,,0.00,0.0,WeatherDisplay:10.37,2013-09-15 01:04:00,
2013-09-15 02:09:00,51.0,49.0,29.79,NW,312,17.3,17.3,93,0.00,CLR,,0.00,0.0,WeatherDisplay:10.37,2013-09-15 01:09:00,
2013-09-15 02:14:00,51.0,49.0,29.78,North,359,12.7,12.7,93,0.00,CLR,,0.00,0.0,WeatherDisplay:10.37,2013-09-15 01:14:00,
2013-09-15 02:19:00,51.0,49.0,29.78,NNW,343,9.0,9.0,93,0.00,CLR,,0.00,0.0,WeatherDisplay:10.37,2013-09-15 01:19:00,
2013-09-15 02:24:00,51.1,49.1,29.78,North,357,11.5,11.5,93,0.00,CLR,,0.00,0.0,WeatherDisplay:10.37,2013-09-15 01:24:00,
2013-09-15 02:29:00,51.4,49.4,29.77,SW,229,13.8,13.8,93,0.00,CLR,,0.00,0.0,WeatherDisplay:10.37,2013-09-15 01:29:00,
2013-09-15 02:34:00,51.9,49.6,29.76,North,0,12.7,12.7,92,0.00,CLR,,0.00,0.0,WeatherDisplay:10.37,2013-09-15 01:34:00,
2013-09-15 02:39:00,52.0,49.5,29.76,NNW,346,16.1,16.1,91,0.00,CLR,,0.00,0.0,WeatherDisplay:10.37,2013-09-15 01:39:00,
2013-09-15 02:44:00,52.0,49.5,29.75,North,353,11.5,11.5,91,0.00,CLR,,0.00,0.0,WeatherDisplay:10.37,2013-09-15 01:44:00,
2013-09-15 02:49:00,52.0,49.5,29.74,North,353,12.7,12.7,91,0.00,CLR,,0.00,0.0,WeatherDisplay:10.37,2013-09-15 01:49:00,
2013-09-15 02:54:00,52.2,49.4,29.74,WNW,299,12.7,12.7,90,0.00,CLR,,0.00,0.0,WeatherDisplay:10.37,2013-09-15 01:54:00,
2013-09-15 02:59:00,52.2,49.4,29.73,NW,316,8.1,8.1,90,0.00,CLR,,0.00,0.0,WeatherDisplay:10.37,2013-09-15 01:59:00,
2013-09-15 03:04:00,52.2,49.4,29.73,NNW,344,11.5,11.5,90,0.00,CLR,,0.00,0.0,WeatherDisplay:10.37,2013-09-15 02:04:00,
2013-09-15 03:09:00,52.2,49.4,29.73,NNW,346,12.7,12.7,90,0.00,CLR,,0.00,0.0,WeatherDisplay:10.37,2013-09-15 02:09:00,
2013-09-15 03:14:00,52.2,49.4,29.72,NNW,330,19.6,19.6,90,0.00,CLR,,0.00,0.0,WeatherDisplay:10.37,2013-09-15 02:14:00,
2013-09-15 03:19:00,52.2,49.1,29.71,North,359,11.5,11.5,89,0.00,CLR,,0.00,0.0,WeatherDisplay:10.37,2013-09-15 02:19:00,
2013-09-15 03:24:00,52.3,49.2,29.71,North,0,19.0,19.0,89,0.00,CLR,,0.00,0.0,WeatherDisplay:10.37,2013-09-15 02:24:00,
2013-09-15 03:29:00,52.3,49.2,29.71,NNW,346,11.0,11.0,89,0.00,CLR,,0.00,0.0,WeatherDisplay:10.37,2013-09-15 02:29:00,
2013-09-15 03:34:00,52.3,49.2,29.70,North,0,16.1,16.1,89,0.00,CLR,,0.00,0.0,WeatherDisplay:10.37,2013-09-15 02:34:00,
2013-09-15 03:39:00,52.3,49.2,29.69,North,0,17.3,17.3,89,0.00,CLR,,0.00,0.0,WeatherDisplay:10.37,2013-09-15 02:39:00,
2013-09-15 03:44:00,52.3,49.2,29.69,NNW,335,12.7,12.7,89,0.00,CLR,,0.00,0.0,WeatherDisplay:10.37,2013-09-15 02:44:00,
2013-09-15 03:49:00,52.3,49.2,29.68,NNW,340,17.3,17.3,89,0.00,CLR,,0.00,0.0,WeatherDisplay:10.37,2013-09-15 02:49:00,
2013-09-15 03:54:00,52.3,48.9,29.67,North,349,12.7,12.7,88,0.00,CLR,,0.00,0.0,WeatherDisplay:10.37,2013-09-15 02:54:00,
2013-09-15 03:59:00,52.3,48.9,29.66,NNW,333,16.1,16.1,88,0.00,CLR,,0.00,0.0,WeatherDisplay:10.37,2013-09-15 02:59:00,
2013-09-15 04:04:00,52.2,48.8,29.65,West,263,12.7,12.7,88,0.00,CLR,,0.00,0.0,WeatherDisplay:10.37,2013-09-15 03:04:00,
2013-09-15 04:09:00,52.2,48.8,29.65,NNW,329,12.7,12.7,88,0.00,CLR,,0.00,0.0,WeatherDisplay:10.37,2013-09-15 03:09:00,
2013-09-15 04:14:00,52.2,48.8,29.65,North,357,19.6,19.6,88,0.00,CLR,,0.00,0.0,WeatherDisplay:10.37,2013-09-15 03:14:00,
2013-09-15 04:19:00,52.2,48.8,29.64,North,357,17.3,17.3,88,0.00,CLR,,0.00,0.0,WeatherDisplay:10.37,2013-09-15 03:19:00,
2013-09-15 04:24:00,52.2,48.8,29.64,North,0,17.3,17.3,88,0.01,RA,,0.01,0.0,WeatherDisplay:10.37,2013-09-15 03:24:00,
2013-09-15 04:29:00,52.0,48.9,29.63,North,357,16.1,16.1,89,0.01,RA,,0.01,0.0,WeatherDisplay:10.37,2013-09-15 03:29:00,
2013-09-15 04:34:00,51.9,48.8,29.62,North,356,19.6,19.6,89,0.01,CLR,,0.01,0.0,WeatherDisplay:10.37,2013-09-15 03:34:00,
2013-09-15 04:39:00,51.7,48.6,29.62,North,359,26.5,26.5,89,0.01,CLR,,0.01,0.0,WeatherDisplay:10.37,2013-09-15 03:39:00,
2013-09-15 04:44:00,51.6,48.8,29.61,NW,305,24.2,24.2,90,0.01,CLR,,0.01,0.0,WeatherDisplay:10.37,2013-09-15 03:44:00,
2013-09-15 04:49:00,51.3,48.8,29.60,NNW,340,19.6,19.6,91,0.01,CLR,,0.01,0.0,WeatherDisplay:10.37,2013-09-15 03:49:00,
2013-09-15 04:54:00,51.3,48.8,29.60,NNW,343,16.1,16.1,91,0.01,CLR,,0.01,0.0,WeatherDisplay:10.37,2013-09-15 03:54:00,
2013-09-15 04:59:00,51.1,48.9,29.59,NW,322,16.1,16.1,92,0.02,RA,,0.02,0.0,WeatherDisplay:10.37,2013-09-15 03:59:00,
2013-09-15 05:01:00,51.1,48.9,29.58,NNW,329,13.8,13.8,92,0.02,RA,,0.02,0.0,WeatherDisplay:10.37,2013-09-15 04:01:00,
2013-09-15 05:02:00,51.0,48.8,29.58,SW,229,18.4,18.4,92,0.02,RA,,0.02,0.0,WeatherDisplay:10.37,2013-09-15 04:02:00,
2013-09-15 05:03:00,51.0,48.8,29.58,WSW,254,19.6,19.6,92,0.02,RA,,0.02,0.0,WeatherDisplay:10.37,2013-09-15 04:03:00,
2013-09-15 05:08:00,51.0,48.8,29.57,NNW,347,19.6,19.6,92,0.02,RA,,0.02,0.0,WeatherDisplay:10.37,2013-09-15 04:08:00,
2013-09-15 05:13:00,50.8,48.8,29.56,NNW,343,13.8,13.8,93,0.03,RA,,0.04,0.0,WeatherDisplay:10.37,2013-09-15 04:13:00,
2013-09-15 05:18:00,50.7,48.7,29.56,NNW,340,19.6,19.6,93,0.04,RA,,0.04,0.0,WeatherDisplay:10.37,2013-09-15 04:18:00,
2013-09-15 05:23:00,50.5,48.8,29.55,NNW,347,17.3,17.3,94,0.04,RA,,0.05,0.0,WeatherDisplay:10.37,2013-09-15 04:23:00,
2013-09-15 05:28:00,50.4,48.7,29.55,NNW,328,16.1,16.1,94,0.05,RA,,0.06,0.0,WeatherDisplay:10.37,2013-09-15 04:28:00,
2013-09-15 05:33:00,50.4,49.0,29.54,SW,232,12.7,12.7,95,0.06,RA,,0.07,0.0,WeatherDisplay:10.37,2013-09-15 04:33:00,
2013-09-15 05:38:00,50.2,48.8,29.53,NNW,343,21.9,21.9,95,0.07,RA,,0.08,0.0,WeatherDisplay:10.37,2013-09-15 04:38:00,
2013-09-15 05:43:00,50.4,49.3,29.52,NW,306,21.9,21.9,96,0.07,RA,,0.08,0.0,WeatherDisplay:10.37,2013-09-15 04:43:00,
2013-09-15 05:48:00,50.4,49.3,29.52,NNW,337,19.0,19.0,96,0.08,RA,,0.09,0.0,WeatherDisplay:10.37,2013-09-15 04:48:00,
2013-09-15 05:53:00,50.4,49.6,29.52,West,281,16.1,16.1,97,0.09,RA,,0.10,0.0,WeatherDisplay:10.37,2013-09-15 04:53:00,
2013-09-15 05:58:00,50.5,49.7,29.51,North,0,11.5,11.5,97,0.09,RA,,0.11,0.0,WeatherDisplay:10.37,2013-09-15 04:58:00,
2013-09-15 06:03:00,50.5,49.7,29.51,North,353,25.3,25.3,97,0.09,RA,,0.12,0.0,WeatherDisplay:10.37,2013-09-15 05:03:00,
2013-09-15 06:08:00,50.5,50.0,29.49,NNW,330,19.6,19.6,98,0.11,RA,,0.13,0.0,WeatherDisplay:10.37,2013-09-15 05:08:00,
2013-09-15 06:13:00,50.7,50.2,29.48,NW,322,17.3,17.3,98,0.10,RA,,0.13,0.0,WeatherDisplay:10.37,2013-09-15 05:13:00,
2013-09-15 06:18:00,50.8,50.3,29.48,NNW,328,20.7,20.7,98,0.09,,,0.13,0.0,WeatherDisplay:10.37,2013-09-15 05:18:00,
2013-09-15 06:23:00,51.0,50.7,29.47,WNW,282,18.4,18.4,99,0.09,RA,,0.14,0.0,WeatherDisplay:10.37,2013-09-15 05:23:00,
2013-09-15 06:28:00,51.0,50.7,29.47,NW,320,21.9,21.9,99,0.08,RA,,0.14,0.0,WeatherDisplay:10.37,2013-09-15 05:28:00,
2013-09-15 06:33:00,51.1,50.8,29.47,NNW,330,19.6,19.6,99,0.07,OVC,,0.14,0.0,WeatherDisplay:10.37,2013-09-15 05:33:00,
2013-09-15 06:38:00,51.1,50.8,29.47,NNW,332,20.0,20.0,99,0.06,OVC,,0.14,0.0,WeatherDisplay:10.37,2013-09-15 05:38:00,
2013-09-15 06:43:00,51.3,51.0,29.47,NNW,333,13.8,13.8,99,0.06,OVC,,0.14,0.0,WeatherDisplay:10.37,2013-09-15 05:43:00,
2013-09-15 06:48:00,51.3,51.0,29.46,NNW,342,24.0,24.0,99,0.05,OVC,,0.14,0.0,WeatherDisplay:10.37,2013-09-15 05:48:00,
2013-09-15 06:53:00,51.3,51.0,29.46,North,359,19.6,19.6,99,0.04,OVC,,0.14,0.0,WeatherDisplay:10.37,2013-09-15 05:53:00,
2013-09-15 06:58:00,51.3,51.0,29.46,NNW,346,18.4,18.4,99,0.04,OVC,,0.14,0.0,WeatherDisplay:10.37,2013-09-15 05:58:00,
2013-09-15 07:03:00,51.4,51.1,29.45,North,354,19.6,19.6,99,0.03,OVC,,0.15,0.0,WeatherDisplay:10.37,2013-09-15 06:03:00,
2013-09-15 07:08:00,51.4,51.1,29.44,SW,227,18.4,18.4,99,0.02,RA,,0.15,0.0,WeatherDisplay:10.37,2013-09-15 06:08:00,
2013-09-15 07:13:00,51.6,51.3,29.44,NW,309,20.7,20.7,99,0.04,RA,,0.17,9.0,WeatherDisplay:10.37,2013-09-15 06:13:00,
2013-09-15 07:18:00,51.6,51.3,29.44,North,0,16.1,16.1,99,0.06,RA,,0.19,7.0,WeatherDisplay:10.37,2013-09-15 06:18:00,
2013-09-15 07:23:00,51.6,51.3,29.43,NNW,332,16.1,16.1,99,0.07,RA,,0.21,5.0,WeatherDisplay:10.37,2013-09-15 06:23:00,
2013-09-15 07:28:00,51.7,51.4,29.43,NW,315,13.8,13.8,99,0.08,RA,,0.22,5.0,WeatherDisplay:10.37,2013-09-15 06:28:00,
2013-09-15 07:33:00,51.9,51.9,29.42,NNW,339,21.9,21.9,100,0.09,RA,,0.23,5.0,WeatherDisplay:10.37,2013-09-15 06:33:00,
2013-09-15 07:38:00,52.0,52.0,29.42,NNW,328,19.6,19.6,100,0.10,RA,,0.24,5.0,WeatherDisplay:10.37,2013-09-15 06:38:00,
2013-09-15 07:43:00,52.3,52.3,29.41,NNW,328,18.4,18.4,100,0.11,RA,,0.25,7.0,WeatherDisplay:10.37,2013-09-15 06:43:00,
2013-09-15 07:48:00,52.6,52.6,29.40,WNW,296,16.1,16.1,100,0.12,RA,,0.26,7.0,WeatherDisplay:10.37,2013-09-15 06:48:00,
2013-09-15 07:53:00,52.9,52.9,29.39,North,0,19.6,19.6,100,0.12,RA,,0.26,11.0,WeatherDisplay:10.37,2013-09-15 06:53:00,
2013-09-15 07:58:00,53.2,53.2,29.39,NNW,332,19.6,19.6,100,0.12,OVC,,0.27,12.0,WeatherDisplay:10.37,2013-09-15 06:58:00,
2013-09-15 08:03:00,53.3,53.3,29.39,NW,326,17.3,17.3,100,0.14,RA,,0.29,12.0,WeatherDisplay:10.37,2013-09-15 07:03:00,
2013-09-15 08:08:00,53.5,53.5,29.38,North,349,19.6,19.6,100,0.15,RA,,0.31,11.0,WeatherDisplay:10.37,2013-09-15 07:08:00,
2013-09-15 08:13:00,53.5,53.5,29.38,NNW,333,25.3,25.3,100,0.14,RA,,0.32,11.0,WeatherDisplay:10.37,2013-09-15 07:13:00,
2013-09-15 08:18:00,53.5,53.5,29.37,WNW,298,18.4,18.4,100,0.14,RA,,0.33,12.0,WeatherDisplay:10.37,2013-09-15 07:18:00,
2013-09-15 08:23:00,53.6,53.6,29.37,North,359,18.0,18.0,100,0.13,RA,,0.34,12.0,WeatherDisplay:10.37,2013-09-15 07:23:00,
2013-09-15 08:28:00,53.6,53.6,29.36,NW,313,19.6,19.6,100,0.13,RA,,0.36,14.0,WeatherDisplay:10.37,2013-09-15 07:28:00,
2013-09-15 08:33:00,53.6,53.6,29.36,North,0,19.6,19.6,100,0.14,RA,,0.37,12.0,WeatherDisplay:10.37,2013-09-15 07:33:00,
2013-09-15 08:38:00,53.8,53.8,29.35,North,352,34.5,34.5,100,0.16,RA,,0.40,14.0,WeatherDisplay:10.37,2013-09-15 07:38:00,
2013-09-15 08:43:00,53.8,53.8,29.34,SW,229,19.6,19.6,100,0.16,RA,,0.41,19.0,WeatherDisplay:10.37,2013-09-15 07:43:00,
2013-09-15 08:48:00,53.9,53.9,29.34,North,0,20.7,20.7,100,0.16,RA,,0.42,32.0,WeatherDisplay:10.37,2013-09-15 07:48:00,
2013-09-15 08:53:00,54.1,54.1,29.34,NNW,333,21.9,21.9,100,0.17,RA,,0.43,30.0,WeatherDisplay:10.37,2013-09-15 07:53:00,
2013-09-15 08:58:00,54.1,54.1,29.33,NNW,333,19.6,19.6,100,0.18,RA,,0.44,18.0,WeatherDisplay:10.37,2013-09-15 07:58:00,
2013-09-15 09:03:00,54.1,54.1,29.32,NNW,328,19.6,19.6,100,0.17,RA,,0.45,21.0,WeatherDisplay:10.37,2013-09-15 08:03:00,
2013-09-15 09:08:00,54.1,54.1,29.32,NW,308,17.3,17.3,100,0.16,RA,,0.47,19.0,WeatherDisplay:10.37,2013-09-15 08:08:00,
2013-09-15 09:13:00,54.2,54.2,29.32,SW,232,24.2,24.2,100,0.17,RA,,0.48,26.0,WeatherDisplay:10.37,2013-09-15 08:13:00,
2013-09-15 09:18:00,54.2,54.2,29.31,North,359,19.6,19.6,100,0.16,RA,,0.49,30.0,WeatherDisplay:10.37,2013-09-15 08:18:00,
2013-09-15 09:23:00,54.4,54.4,29.31,SW,234,17.0,17.0,100,0.16,RA,,0.50,25.0,WeatherDisplay:10.37,2013-09-15 08:23:00,
2013-09-15 09:28:00,54.4,54.4,29.31,North,0,27.6,27.6,100,0.16,RA,,0.51,25.0,WeatherDisplay:10.37,2013-09-15 08:28:00,
2013-09-15 09:33:00,54.5,54.5,29.29,NNW,339,19.6,19.6,100,0.15,RA,,0.52,28.0,WeatherDisplay:10.37,2013-09-15 08:33:00,
2013-09-15 09:38:00,54.7,54.7,29.29,North,356,20.7,20.7,100,0.13,RA,,0.53,26.0,WeatherDisplay:10.37,2013-09-15 08:38:00,
2013-09-15 09:43:00,54.8,54.8,29.29,NNW,335,21.9,21.9,100,0.12,RA,,0.54,26.0,WeatherDisplay:10.37,2013-09-15 08:43:00,
2013-09-15 09:48:00,55.0,55.0,29.29,NNW,330,20.7,20.7,100,0.12,RA,,0.54,28.0,WeatherDisplay:10.37,2013-09-15 08:48:00,
2013-09-15 09:53:00,55.1,55.1,29.28,WNW,287,21.9,21.9,100,0.11,RA,,0.54,25.0,WeatherDisplay:10.37,2013-09-15 08:53:00,
2013-09-15 09:58:00,55.1,55.1,29.28,North,0,19.6,19.6,100,0.11,RA,,0.55,28.0,WeatherDisplay:10.37,2013-09-15 08:58:00,
2013-09-15 10:03:00,55.3,55.3,29.27,WSW,248,20.7,20.7,100,0.11,RA,,0.56,40.0,WeatherDisplay:10.37,2013-09-15 09:03:00,
2013-09-15 10:08:00,55.4,55.4,29.27,NNW,330,16.0,16.0,100,0.11,RA,,0.57,39.0,WeatherDisplay:10.37,2013-09-15 09:08:00,
2013-09-15 10:13:00,55.6,55.6,29.26,WNW,299,21.9,21.9,100,0.09,RA,,0.57,35.0,WeatherDisplay:10.37,2013-09-15 09:13:00,
2013-09-15 10:18:00,55.7,55.7,29.25,NW,316,16.1,16.1,100,0.08,OVC,,0.57,33.0,WeatherDisplay:10.37,2013-09-15 09:18:00,
2013-09-15 10:23:00,55.9,55.9,29.25,North,359,19.6,19.6,100,0.07,OVC,,0.57,44.0,WeatherDisplay:10.37,2013-09-15 09:23:00,
2013-09-15 10:28:00,56.0,56.0,29.24,WSW,237,20.7,20.7,100,0.06,OVC,,0.57,49.0,WeatherDisplay:10.37,2013-09-15 09:28:00,
2013-09-15 10:33:00,56.2,56.2,29.25,WNW,301,19.6,19.6,100,0.05,OVC,,0.57,93.0,WeatherDisplay:10.37,2013-09-15 09:33:00,
2013-09-15 10:38:00,56.3,56.3,29.24,NW,316,24.2,24.2,100,0.04,OVC,,0.57,99.0,WeatherDisplay:10.37,2013-09-15 09:38:00,
2013-09-15 10:43:00,56.5,56.5,29.24,NW,305,19.6,19.6,100,0.05,RA,,0.58,100.0,WeatherDisplay:10.37,2013-09-15 09:43:00,
2013-09-15 10:48:00,56.5,56.5,29.23,West,274,25.3,25.3,100,0.04,RA,,0.58,91.0,WeatherDisplay:10.37,2013-09-15 09:48:00,
2013-09-15 10:53:00,56.6,56.6,29.23,WNW,299,17.3,17.3,100,0.04,OVC,,0.58,102.0,WeatherDisplay:10.37,2013-09-15 09:53:00,
2013-09-15 10:58:00,56.6,56.6,29.22,NW,315,18.0,18.0,100,0.03,OVC,,0.58,86.0,WeatherDisplay:10.37,2013-09-15 09:58:00,
2013-09-15 11:03:00,56.7,56.7,29.23,North,356,19.6,19.6,100,0.03,RA,,0.59,63.0,WeatherDisplay:10.37,2013-09-15 10:03:00,
2013-09-15 11:08:00,56.9,56.9,29.22,NW,325,19.6,19.6,100,0.02,RA,,0.59,93.0,WeatherDisplay:10.37,2013-09-15 10:08:00,
2013-09-15 11:13:00,56.9,56.9,29.22,NNW,344,20.0,20.0,100,0.03,RA,,0.60,51.0,WeatherDisplay:10.37,2013-09-15 10:13:00,
2013-09-15 11:18:00,57.0,57.0,29.22,NNW,342,8.1,8.1,100,0.04,RA,,0.61,111.0,WeatherDisplay:10.37,2013-09-15 10:18:00,
2013-09-15 11:23:00,57.5,57.5,29.21,WSW,240,18.4,18.4,100,0.04,RA,,0.61,246.0,WeatherDisplay:10.37,2013-09-15 10:23:00,
2013-09-15 11:28:00,57.6,57.6,29.21,WSW,243,16.1,16.1,100,0.04,BKN,,0.61,230.0,WeatherDisplay:10.37,2013-09-15 10:28:00,
2013-09-15 11:33:00,57.8,57.8,29.21,NW,322,16.1,16.1,100,0.05,RA,,0.62,157.0,WeatherDisplay:10.37,2013-09-15 10:33:00,
2013-09-15 11:38:00,57.6,57.6,29.21,NNW,344,18.4,18.4,100,0.05,RA,,0.62,164.0,WeatherDisplay:10.37,2013-09-15 10:38:00,
2013-09-15 11:43:00,57.8,57.8,29.21,NNW,337,12.7,12.7,100,0.05,RA,,0.63,81.0,WeatherDisplay:10.37,2013-09-15 10:43:00,
2013-09-15 11:48:00,57.6,57.6,29.22,NNW,342,16.1,16.1,100,0.05,RA,,0.64,88.0,WeatherDisplay:10.37,2013-09-15 10:48:00,
2013-09-15 11:53:00,57.8,57.8,29.22,North,353,8.0,8.0,100,0.06,RA,,0.64,135.0,WeatherDisplay:10.37,2013-09-15 10:53:00,
2013-09-15 11:58:00,57.8,57.8,29.22,NNW,333,8.1,8.1,100,0.07,RA,,0.65,179.0,WeatherDisplay:10.37,2013-09-15 10:58:00,
2013-09-15 12:03:00,57.3,57.3,29.23,NNW,347,18.4,18.4,100,0.07,RA,,0.66,155.0,WeatherDisplay:10.37,2013-09-15 11:03:00,
2013-09-15 12:08:00,56.2,56.2,29.23,NW,323,16.1,16.1,100,0.08,RA,,0.67,199.0,WeatherDisplay:10.37,2013-09-15 11:08:00,
2013-09-15 12:13:00,55.1,55.1,29.23,North,359,19.6,19.6,100,0.07,RA,,0.67,179.0,WeatherDisplay:10.37,2013-09-15 11:13:00,
2013-09-15 12:18:00,55.0,55.0,29.22,NW,326,17.3,17.3,100,0.06,OVC,,0.67,178.0,WeatherDisplay:10.37,2013-09-15 11:18:00,
2013-09-15 12:23:00,55.0,55.0,29.22,North,0,12.7,12.7,100,0.06,OVC,,0.67,148.0,WeatherDisplay:10.37,2013-09-15 11:23:00,
2013-09-15 12:28:00,54.8,54.8,29.22,WNW,288,10.4,10.4,100,0.06,OVC,,0.68,225.0,WeatherDisplay:10.37,2013-09-15 11:28:00,
2013-09-15 12:33:00,55.1,55.1,29.22,North,353,8.0,8.0,100,0.06,RA,,0.68,209.0,WeatherDisplay:10.37,2013-09-15 11:33:00,
2013-09-15 12:38:00,55.3,55.3,29.21,North,354,10.4,10.4,100,0.06,RA,,0.68,234.0,WeatherDisplay:10.37,2013-09-15 11:38:00,
2013-09-15 12:43:00,55.7,55.7,29.21,North,349,10.0,10.0,100,0.05,SCT,,0.68,362.0,WeatherDisplay:10.37,2013-09-15 11:43:00,
2013-09-15 12:48:00,55.9,55.9,29.21,NNW,342,11.5,11.5,100,0.05,OVC,,0.68,93.0,WeatherDisplay:10.37,2013-09-15 11:48:00,
2013-09-15 12:53:00,55.4,55.4,29.22,North,352,19.6,19.6,100,0.04,OVC,,0.68,123.0,WeatherDisplay:10.37,2013-09-15 11:53:00,
2013-09-15 12:58:00,55.4,55.4,29.21,NNW,337,15.0,15.0,100,0.03,BKN,,0.68,245.0,WeatherDisplay:10.37,2013-09-15 11:58:00,
2013-09-15 13:03:00,55.6,55.6,29.21,North,350,20.7,20.7,100,0.02,CLR,,0.68,568.0,WeatherDisplay:10.37,2013-09-15 12:03:00,
2013-09-15 13:08:00,55.9,55.9,29.21,NNW,339,14.0,14.0,100,0.01,CLR,,0.68,584.0,WeatherDisplay:10.37,2013-09-15 12:08:00,
2013-09-15 13:13:00,56.0,55.4,29.22,NW,326,20.7,20.7,98,0.01,CLR,,0.68,632.0,WeatherDisplay:10.37,2013-09-15 12:13:00,
2013-09-15 13:18:00,55.3,54.2,29.24,NW,313,13.8,13.8,96,0.01,OVC,,0.68,208.0,WeatherDisplay:10.37,2013-09-15 12:18:00,
2013-09-15 13:23:00,54.2,52.8,29.23,North,350,11.5,11.5,95,0.01,OVC,,0.68,253.0,WeatherDisplay:10.37,2013-09-15 12:23:00,
2013-09-15 13:28:00,54.1,52.7,29.24,NNW,330,11.5,11.5,95,0.01,BKN,,0.68,262.0,WeatherDisplay:10.37,2013-09-15 12:28:00,
2013-09-15 13:33:00,53.9,52.5,29.24,NNW,333,17.3,17.3,95,0.00,OVC,,0.68,187.0,WeatherDisplay:10.37,2013-09-15 12:33:00,
2013-09-15 13:38:00,53.6,51.9,29.25,NNW,333,17.3,17.3,94,0.00,OVC,,0.68,169.0,WeatherDisplay:10.37,2013-09-15 12:38:00,
2013-09-15 13:43:00,53.1,51.1,29.25,North,349,13.8,13.8,93,0.00,OVC,,0.68,185.0,WeatherDisplay:10.37,2013-09-15 12:43:00,
2013-09-15 13:48:00,52.9,50.6,29.26,NNW,340,20.7,20.7,92,0.00,BKN,,0.68,280.0,WeatherDisplay:10.37,2013-09-15 12:48:00,
2013-09-15 13:53:00,52.9,50.0,29.26,NNW,336,21.9,21.9,90,0.00,OVC,,0.68,243.0,WeatherDisplay:10.37,2013-09-15 12:53:00,
2013-09-15 13:58:00,53.1,49.9,29.25,NNW,344,17.3,17.3,89,0.00,BKN,,0.68,232.0,WeatherDisplay:10.37,2013-09-15 12:58:00,
2013-09-15 14:03:00,53.2,49.4,29.26,North,0,8.1,8.1,87,0.00,SCT,,0.68,384.0,WeatherDisplay:10.37,2013-09-15 13:03:00,
2013-09-15 14:08:00,53.5,49.4,29.26,NNW,335,10.4,10.4,86,0.00,BKN,,0.68,255.0,WeatherDisplay:10.37,2013-09-15 13:08:00,
2013-09-15 14:13:00,53.3,48.9,29.26,North,359,17.3,17.3,85,0.00,OVC,,0.68,151.0,WeatherDisplay:10.37,2013-09-15 13:13:00,
2013-09-15 14:18:00,53.3,48.9,29.26,NW,323,10.4,10.4,85,0.00,OVC,,0.68,208.0,WeatherDisplay:10.37,2013-09-15 13:18:00,
2013-09-15 14:23:00,53.3,48.6,29.27,NNW,344,21.9,21.9,84,0.00,OVC,,0.68,199.0,WeatherDisplay:10.37,2013-09-15 13:23:00,
2013-09-15 14:28:00,53.9,49.8,29.27,North,356,10.4,10.4,86,0.00,BKN,,0.68,274.0,WeatherDisplay:10.37,2013-09-15 13:28:00,
2013-09-15 14:33:00,53.3,48.3,29.26,North,0,11.5,11.5,83,0.00,OVC,,0.68,167.0,WeatherDisplay:10.37,2013-09-15 13:33:00,
2013-09-15 14:38:00,53.2,48.2,29.26,NNW,342,11.5,11.5,83,0.00,CLR,,0.68,540.0,WeatherDisplay:10.37,2013-09-15 13:38:00,
2013-09-15 14:43:00,53.5,46.5,29.26,NNW,346,19.6,19.6,77,0.00,CLR,,0.68,602.0,WeatherDisplay:10.37,2013-09-15 13:43:00,
2013-09-15 14:48:00,53.8,46.8,29.26,WSW,241,12.7,12.7,77,0.00,CLR,,0.68,565.0,WeatherDisplay:10.37,2013-09-15 13:48:00,
2013-09-15 14:53:00,53.9,46.9,29.26,NNW,343,19.6,19.6,77,0.00,CLR,,0.68,563.0,WeatherDisplay:10.37,2013-09-15 13:53:00,
2013-09-15 14:58:00,53.9,46.5,29.26,NW,326,17.0,17.0,76,0.00,CLR,,0.68,588.0,WeatherDisplay:10.37,2013-09-15 13:58:00,
2013-09-15 15:03:00,54.4,47.7,29.26,NNW,346,11.5,11.5,78,0.00,CLR,,0.68,670.0,WeatherDisplay:10.37,2013-09-15 14:03:00,
2013-09-15 15:08:00,54.7,47.6,29.26,NNW,335,18.4,18.4,77,0.00,CLR,,0.68,693.0,WeatherDisplay:10.37,2013-09-15 14:08:00,
2013-09-15 15:13:00,54.4,46.3,29.26,North,0,18.0,18.0,74,0.00,BKN,,0.68,213.0,WeatherDisplay:10.37,2013-09-15 14:13:00,
2013-09-15 15:18:00,54.1,46.0,29.26,NNW,347,16.1,16.1,74,0.00,BKN,,0.68,213.0,WeatherDisplay:10.37,2013-09-15 14:18:00,
2013-09-15 15:23:00,54.1,44.9,29.26,NNW,336,17.3,17.3,71,0.00,OVC,,0.68,213.0,WeatherDisplay:10.37,2013-09-15 14:23:00,
2013-09-15 15:28:00,53.8,44.6,29.26,North,349,27.6,27.6,71,0.00,OVC,,0.68,187.0,WeatherDisplay:10.37,2013-09-15 14:28:00,
2013-09-15 15:33:00,54.5,45.3,29.26,North,356,12.7,12.7,71,0.00,CLR,,0.68,605.0,WeatherDisplay:10.37,2013-09-15 14:33:00,
2013-09-15 15:38:00,54.7,45.5,29.26,North,0,16.1,16.1,71,0.00,CLR,,0.68,519.0,WeatherDisplay:10.37,2013-09-15 14:38:00,
2013-09-15 15:43:00,54.4,45.2,29.26,North,353,11.5,11.5,71,0.00,CLR,,0.68,134.0,WeatherDisplay:10.37,2013-09-15 14:43:00,
2013-09-15 15:48:00,52.3,44.6,29.27,North,350,26.5,26.5,75,0.03,RA,,0.72,106.0,WeatherDisplay:10.37,2013-09-15 14:48:00,
2013-09-15 15:53:00,49.4,44.1,29.28,NNW,347,20.7,20.7,82,0.05,RA,,0.73,84.0,WeatherDisplay:10.37,2013-09-15 14:53:00,
2013-09-15 15:58:00,48.8,45.7,29.28,North,0,12.7,12.7,89,0.05,RA,,0.73,450.0,WeatherDisplay:10.37,2013-09-15 14:58:00,
2013-09-15 16:03:00,49.2,47.0,29.28,North,353,12.7,12.7,92,0.05,CLR,,0.73,428.0,WeatherDisplay:10.37,2013-09-15 15:03:00,
2013-09-15 16:08:00,49.8,47.6,29.28,NNW,343,10.4,10.4,92,0.05,CLR,,0.73,431.0,WeatherDisplay:10.37,2013-09-15 15:08:00,
2013-09-15 16:13:00,49.9,47.4,29.28,NNW,346,11.5,11.5,91,0.05,BKN,,0.73,213.0,WeatherDisplay:10.37,2013-09-15 15:13:00,
2013-09-15 16:18:00,50.1,47.0,29.28,NNW,347,16.1,16.1,89,0.05,CLR,,0.73,452.0,WeatherDisplay:10.37,2013-09-15 15:18:00,
2013-09-15 16:23:00,50.2,46.5,29.28,North,0,20.7,20.7,87,0.05,OVC,,0.73,120.0,WeatherDisplay:10.37,2013-09-15 15:23:00,
2013-09-15 16:28:00,50.4,45.7,29.27,NNW,343,6.9,6.9,84,0.05,BKN,,0.73,201.0,WeatherDisplay:10.37,2013-09-15 15:28:00,
2013-09-15 16:33:00,50.7,46.0,29.27,NNW,346,12.7,12.7,84,0.05,OVC,,0.73,84.0,WeatherDisplay:10.37,2013-09-15 15:33:00,
2013-09-15 16:38:00,50.4,45.7,29.28,North,0,24.2,24.2,84,0.07,RA,,0.75,90.0,WeatherDisplay:10.37,2013-09-15 15:38:00,
2013-09-15 16:43:00,49.5,45.8,29.28,West,267,12.7,12.7,87,0.07,RA,,0.75,162.0,WeatherDisplay:10.37,2013-09-15 15:43:00,
2013-09-15 16:48:00,49.4,46.3,29.28,North,0,18.4,18.4,89,0.03,CLR,,0.75,354.0,WeatherDisplay:10.37,2013-09-15 15:48:00,
2013-09-15 16:53:00,49.2,46.1,29.29,NNW,346,12.7,12.7,89,0.02,CLR,,0.75,334.0,WeatherDisplay:10.37,2013-09-15 15:53:00,
2013-09-15 16:58:00,49.1,46.0,29.29,North,354,19.6,19.6,89,0.02,CLR,,0.75,324.0,WeatherDisplay:10.37,2013-09-15 15:58:00,
2013-09-15 17:03:00,49.2,45.8,29.30,NNW,347,10.4,10.4,88,0.02,FEW,,0.75,287.0,WeatherDisplay:10.37,2013-09-15 16:03:00,
2013-09-15 17:08:00,49.1,45.4,29.30,NNW,335,15.0,15.0,87,0.02,BKN,,0.75,128.0,WeatherDisplay:10.37,2013-09-15 16:08:00,
2013-09-15 17:13:00,48.9,44.9,29.30,NNW,340,5.8,5.8,86,0.02,OVC,,0.75,70.0,WeatherDisplay:10.37,2013-09-15 16:13:00,
2013-09-15 17:18:00,49.1,45.1,29.31,NNW,346,12.7,12.7,86,0.02,OVC,,0.75,81.0,WeatherDisplay:10.37,2013-09-15 16:18:00,
2013-09-15 17:23:00,49.2,45.2,29.32,North,359,15.0,15.0,86,0.02,BKN,,0.75,127.0,WeatherDisplay:10.37,2013-09-15 16:23:00,
2013-09-15 17:28:00,48.9,45.2,29.32,North,359,11.5,11.5,87,0.02,BKN,,0.75,153.0,WeatherDisplay:10.37,2013-09-15 16:28:00,
2013-09-15 17:33:00,48.2,44.5,29.32,NNW,347,10.4,10.4,87,0.02,OVC,,0.75,86.0,WeatherDisplay:10.37,2013-09-15 16:33:00,
2013-09-15 17:38:00,48.0,44.6,29.32,North,349,12.7,12.7,88,0.00,OVC,,0.75,46.0,WeatherDisplay:10.37,2013-09-15 16:38:00,
2013-09-15 17:43:00,47.9,44.5,29.32,NNW,347,6.9,6.9,88,0.00,OVC,,0.75,39.0,WeatherDisplay:10.37,2013-09-15 16:43:00,
2013-09-15 17:48:00,47.7,44.3,29.32,North,356,8.1,8.1,88,0.00,OVC,,0.75,21.0,WeatherDisplay:10.37,2013-09-15 16:48:00,
2013-09-15 17:54:00,47.7,44.3,29.32,North,352,5.8,5.8,88,0.00,OVC,,0.75,25.0,WeatherDisplay:10.37,2013-09-15 16:54:00,
2013-09-15 17:59:00,47.6,44.5,29.33,NNW,340,5.8,5.8,89,0.02,RA,,0.77,19.0,WeatherDisplay:10.37,2013-09-15 16:59:00,
2013-09-15 18:04:00,47.3,44.2,29.32,North,357,13.8,13.8,89,0.04,RA,,0.79,23.0,WeatherDisplay:10.37,2013-09-15 17:04:00,
2013-09-15 18:09:00,46.8,44.0,29.32,NNW,346,10.4,10.4,90,0.05,RA,,0.80,23.0,WeatherDisplay:10.37,2013-09-15 17:09:00,
2013-09-15 18:14:00,46.7,44.2,29.32,NNW,335,8.1,8.1,91,0.06,RA,,0.81,16.0,WeatherDisplay:10.37,2013-09-15 17:14:00,
2013-09-15 18:19:00,46.2,43.7,29.32,North,350,4.6,4.6,91,0.06,RA,,0.81,46.0,WeatherDisplay:10.37,2013-09-15 17:19:00,
2013-09-15 18:24:00,46.1,43.9,29.31,NNW,347,6.9,6.9,92,0.06,OVC,,0.81,42.0,WeatherDisplay:10.37,2013-09-15 17:24:00,
2013-09-15 18:29:00,46.0,43.8,29.31,North,350,5.8,5.8,92,0.06,OVC,,0.81,26.0,WeatherDisplay:10.37,2013-09-15 17:29:00,
2013-09-15 18:34:00,45.7,43.5,29.31,NNW,340,1.2,1.2,92,0.06,OVC,,0.81,28.0,WeatherDisplay:10.37,2013-09-15 17:34:00,
2013-09-15 18:39:00,45.7,43.8,29.31,NNW,333,2.3,2.3,93,0.06,OVC,,0.81,37.0,WeatherDisplay:10.37,2013-09-15 17:39:00,
2013-09-15 18:44:00,45.5,43.6,29.31,NNW,340,1.2,0.0,93,0.06,OVC,,0.81,26.0,WeatherDisplay:10.37,2013-09-15 17:44:00,
2013-09-15 18:49:00,45.5,43.6,29.31,SW,232,6.9,6.9,93,0.06,OVC,,0.81,26.0,WeatherDisplay:10.37,2013-09-15 17:49:00,
2013-09-15 18:54:00,45.7,44.1,29.31,SW,233,3.5,3.5,94,0.06,BKN,,0.81,51.0,WeatherDisplay:10.37,2013-09-15 17:54:00,
2013-09-15 18:59:00,45.8,44.2,29.30,NNW,346,8.1,8.1,94,0.05,RA,,0.82,46.0,WeatherDisplay:10.37,2013-09-15 17:59:00,
2013-09-15 19:04:00,45.7,44.1,29.31,North,352,11.5,11.5,94,0.03,RA,,0.82,28.0,WeatherDisplay:10.37,2013-09-15 18:04:00,
2013-09-15 19:09:00,45.7,44.1,29.31,NW,320,8.1,8.1,94,0.02,OVC,,0.82,18.0,WeatherDisplay:10.37,2013-09-15 18:09:00,
2013-09-15 19:14:00,45.7,44.1,29.30,North,0,3.5,3.5,94,0.01,OVC,,0.82,11.0,WeatherDisplay:10.37,2013-09-15 18:14:00,
2013-09-15 19:19:00,45.5,43.9,29.30,NNW,347,11.5,11.5,94,0.01,OVC,,0.82,9.0,WeatherDisplay:10.37,2013-09-15 18:19:00,
2013-09-15 19:24:00,45.4,43.8,29.30,NNW,330,3.5,3.5,94,0.01,OVC,,0.82,7.0,WeatherDisplay:10.37,2013-09-15 18:24:00,
2013-09-15 19:29:00,45.2,43.6,29.30,NW,316,3.5,3.5,94,0.01,OVC,,0.82,7.0,WeatherDisplay:10.37,2013-09-15 18:29:00,
2013-09-15 19:34:00,45.2,43.9,29.31,NW,320,10.0,10.0,95,0.01,OVC,,0.82,5.0,WeatherDisplay:10.37,2013-09-15 18:34:00,
2013-09-15 19:39:00,45.4,44.1,29.31,NNW,339,8.1,8.1,95,0.02,RA,,0.83,0.0,WeatherDisplay:10.37,2013-09-15 18:39:00,
2013-09-15 19:44:00,45.5,44.2,29.31,North,353,17.3,17.3,95,0.03,RA,,0.84,0.0,WeatherDisplay:10.37,2013-09-15 18:44:00,
2013-09-15 19:49:00,45.5,44.2,29.31,NNW,337,8.1,8.1,95,0.03,RA,,0.84,0.0,WeatherDisplay:10.37,2013-09-15 18:49:00,
2013-09-15 19:54:00,45.5,44.2,29.32,NNW,332,6.0,6.0,95,0.03,OVC,,0.84,0.0,WeatherDisplay:10.37,2013-09-15 18:54:00,
2013-09-15 19:59:00,45.7,44.4,29.32,NNW,344,11.5,11.5,95,0.03,RA,,0.85,0.0,WeatherDisplay:10.37,2013-09-15 18:59:00,
2013-09-15 20:04:00,45.7,44.4,29.32,North,350,6.9,6.9,95,0.03,RA,,0.85,0.0,WeatherDisplay:10.37,2013-09-15 19:04:00,
2013-09-15 20:09:00,45.5,44.2,29.32,North,350,5.8,5.8,95,0.04,RA,,0.86,0.0,WeatherDisplay:10.37,2013-09-15 19:09:00,
2013-09-15 20:14:00,45.4,44.1,29.32,North,350,5.8,5.8,95,0.04,RA,,0.86,0.0,WeatherDisplay:10.37,2013-09-15 19:14:00,
2013-09-15 20:18:00,45.2,43.9,29.31,North,353,6.0,6.0,95,0.04,RA,,0.86,0.0,WeatherDisplay:10.37,2013-09-15 19:18:00,
2013-09-15 20:23:00,45.2,43.9,29.31,North,357,11.5,11.5,95,0.04,CLR,,0.86,0.0,WeatherDisplay:10.37,2013-09-15 19:23:00,
2013-09-15 20:28:00,44.9,43.6,29.30,NNW,342,5.8,5.8,95,0.04,CLR,,0.86,0.0,WeatherDisplay:10.37,2013-09-15 19:28:00,
2013-09-15 20:33:00,44.8,43.5,29.30,NNW,337,6.9,6.9,95,0.04,CLR,,0.86,0.0,WeatherDisplay:10.37,2013-09-15 19:33:00,
2013-09-15 20:38:00,44.6,43.0,29.30,NNW,347,3.5,3.5,94,0.03,CLR,,0.86,0.0,WeatherDisplay:10.37,2013-09-15 19:38:00,
2013-09-15 20:43:00,44.5,42.9,29.31,North,356,3.0,3.0,94,0.02,CLR,,0.86,0.0,WeatherDisplay:10.37,2013-09-15 19:43:00,
2013-09-15 20:48:00,44.3,42.7,29.31,NNW,336,12.7,12.7,94,0.02,CLR,,0.86,0.0,WeatherDisplay:10.37,2013-09-15 19:48:00,
2013-09-15 20:53:00,44.2,42.6,29.31,NNW,343,7.0,7.0,94,0.02,CLR,,0.86,0.0,WeatherDisplay:10.37,2013-09-15 19:53:00,
2013-09-15 20:58:00,44.1,42.5,29.30,North,350,3.5,3.5,94,0.01,CLR,,0.86,0.0,WeatherDisplay:10.37,2013-09-15 19:58:00,
2013-09-15 21:03:00,44.1,42.5,29.31,North,349,6.9,6.9,94,0.01,CLR,,0.86,0.0,WeatherDisplay:10.37,2013-09-15 20:03:00,
2013-09-15 21:08:00,44.1,42.8,29.31,North,352,5.8,5.8,95,0.01,CLR,,0.86,0.0,WeatherDisplay:10.37,2013-09-15 20:08:00,
2013-09-15 21:13:00,44.2,42.9,29.32,NNW,332,6.9,6.9,95,0.01,RA,,0.87,0.0,WeatherDisplay:10.37,2013-09-15 20:13:00,
2013-09-15 21:18:00,44.3,43.0,29.32,NNW,329,8.1,8.1,95,0.03,RA,,0.89,0.0,WeatherDisplay:10.37,2013-09-15 20:18:00,
2013-09-15 21:23:00,44.5,43.2,29.31,North,349,8.1,8.1,95,0.04,RA,,0.90,0.0,WeatherDisplay:10.37,2013-09-15 20:23:00,
2013-09-15 21:28:00,44.2,42.9,29.31,NW,315,12.7,12.7,95,0.04,RA,,0.90,0.0,WeatherDisplay:10.37,2013-09-15 20:28:00,
2013-09-15 21:33:00,44.1,42.8,29.31,NNW,347,5.8,5.8,95,0.04,CLR,,0.90,0.0,WeatherDisplay:10.37,2013-09-15 20:33:00,
2013-09-15 21:38:00,43.9,42.6,29.31,NW,323,5.8,5.8,95,0.04,CLR,,0.90,0.0,WeatherDisplay:10.37,2013-09-15 20:38:00,
2013-09-15 21:43:00,43.8,42.5,29.31,NNW,337,6.9,6.9,95,0.04,CLR,,0.90,0.0,WeatherDisplay:10.37,2013-09-15 20:43:00,
2013-09-15 21:48:00,43.6,42.3,29.30,North,0,8.1,8.1,95,0.04,CLR,,0.90,0.0,WeatherDisplay:10.37,2013-09-15 20:48:00,
2013-09-15 21:53:00,43.5,42.2,29.30,NNW,342,6.9,6.9,95,0.04,CLR,,0.90,0.0,WeatherDisplay:10.37,2013-09-15 20:53:00,
2013-09-15 21:58:00,43.2,41.9,29.30,North,0,5.8,5.8,95,0.04,CLR,,0.90,0.0,WeatherDisplay:10.37,2013-09-15 20:58:00,
2013-09-15 22:03:00,43.1,41.8,29.30,NNW,328,6.9,6.9,95,0.04,CLR,,0.90,0.0,WeatherDisplay:10.37,2013-09-15 21:03:00,
2013-09-15 22:08:00,42.9,41.6,29.30,NW,309,1.2,1.2,95,0.04,CLR,,0.90,0.0,WeatherDisplay:10.37,2013-09-15 21:08:00,
2013-09-15 22:13:00,42.8,41.5,29.29,NW,315,2.0,2.0,95,0.03,CLR,,0.90,0.0,WeatherDisplay:10.37,2013-09-15 21:13:00,
2013-09-15 22:18:00,42.8,41.7,29.29,NNW,344,5.0,5.0,96,0.01,CLR,,0.90,0.0,WeatherDisplay:10.37,2013-09-15 21:18:00,
2013-09-15 22:23:00,43.1,42.0,29.30,NW,319,5.8,5.8,96,0.00,CLR,,0.90,0.0,WeatherDisplay:10.37,2013-09-15 21:23:00,
2013-09-15 22:28:00,43.3,42.2,29.29,NW,322,4.6,4.6,96,0.00,CLR,,0.90,0.0,WeatherDisplay:10.37,2013-09-15 21:28:00,
2013-09-15 22:33:00,43.3,42.2,29.29,NW,322,4.6,4.6,96,0.00,CLR,,0.90,0.0,WeatherDisplay:10.37,2013-09-15 21:33:00,
2013-09-15 22:38:00,43.3,42.2,29.29,NNW,339,6.9,6.9,96,0.00,CLR,,0.90,0.0,WeatherDisplay:10.37,2013-09-15 21:38:00,
2013-09-15 22:43:00,43.3,42.2,29.28,North,357,3.5,3.5,96,0.00,CLR,,0.90,0.0,WeatherDisplay:10.37,2013-09-15 21:43:00,
2013-09-15 22:48:00,43.2,42.1,29.29,NNW,343,4.6,4.6,96,0.00,CLR,,0.90,0.0,WeatherDisplay:10.37,2013-09-15 21:48:00,
2013-09-15 22:53:00,43.1,42.0,29.29,NW,325,3.5,3.5,96,0.00,CLR,,0.90,0.0,WeatherDisplay:10.37,2013-09-15 21:53:00,
2013-09-15 22:58:00,42.9,41.8,29.29,North,356,4.6,4.6,96,0.00,CLR,,0.90,0.0,WeatherDisplay:10.37,2013-09-15 21:58:00,
2013-09-15 23:03:00,42.8,41.7,29.29,North,0,2.3,2.3,96,0.00,CLR,,0.90,0.0,WeatherDisplay:10.37,2013-09-15 22:03:00,
2013-09-15 23:08:00,42.8,41.7,29.29,NNW,333,5.8,5.8,96,0.00,CLR,,0.90,0.0,WeatherDisplay:10.37,2013-09-15 22:08:00,
2013-09-15 23:13:00,42.6,41.3,29.29,NNW,339,3.5,3.5,95,0.00,CLR,,0.90,0.0,WeatherDisplay:10.37,2013-09-15 22:13:00,
2013-09-15 23:18:00,42.3,41.2,29.29,North,0,5.8,5.8,96,0.00,CLR,,0.90,0.0,WeatherDisplay:10.37,2013-09-15 22:18:00,
2013-09-15 23:23:00,42.3,41.2,29.29,North,0,2.3,2.3,96,0.00,CLR,,0.90,0.0,WeatherDisplay:10.37,2013-09-15 22:23:00,
2013-09-15 23:28:00,42.3,41.2,29.29,NW,322,2.3,2.3,96,0.00,CLR,,0.90,0.0,WeatherDisplay:10.37,2013-09-15 22:28:00,
2013-09-15 23:33:00,42.2,41.1,29.29,WSW,243,2.3,2.3,96,0.00,CLR,,0.90,0.0,WeatherDisplay:10.37,2013-09-15 22:33:00,
2013-09-15 23:38:00,42.2,41.1,29.29,NW,320,3.5,3.5,96,0.00,CLR,,0.90,0.0,WeatherDisplay:10.37,2013-09-15 22:38:00,
2013-09-15 23:43:00,42.3,41.2,29.29,NNW,329,2.3,2.3,96,0.00,CLR,,0.90,0.0,WeatherDisplay:10.37,2013-09-15 22:43:00,
2013-09-15 23:48:00,42.6,41.5,29.29,West,278,6.0,6.0,96,0.00,CLR,,0.90,0.0,WeatherDisplay:10.37,2013-09-15 22:48:00,
2013-09-15 23:53:00,42.8,41.7,29.28,NNW,329,2.3,2.3,96,0.00,CLR,,0.90,0.0,WeatherDisplay:10.37,2013-09-15 22:53:00,
2013-09-15 23:58:00,43.1,42.3,29.29,NNW,339,6.0,6.0,97,0.00,CLR,,0.90,0.0,WeatherDisplay:10.37,2013-09-15 22:58:00,